sat.trackr.live / text

‹ back to catalog

ELEKTRO-L 3

NORAD 44903 · 2019-095A

PAYLOAD ACTIVE UNKNOWN

§ Identity

Operator
Country
CIS
Launch date
2019-12-24
Launch site
TYMSC
Launch vehicle
Mass (kg)
RCS (m²)

Purposes: comms, earth_obs

External: N2YO · Heavens-Above · Gunter

§ Orbital elements

Epoch: 2026-05-25T04:06:15.188832Z

Period
1,436.11 min
Inclination
0.1998°
Eccentricity
0.0001072
Mean motion
1.00271061 rev/d
Perigee alt
35,782.3 km
Apogee alt
35,791.3 km
Semi-major
42,164.9 km
B*
0.0000e+0
RAAN
80.4578°
Arg perigee
325.2895°
Mean anomaly
334.5065°
Rev number
2,347

§ Raw data

ELEKTRO-L 31 44903U 19095A   26145.17100913 -.00000098  00000+0  00000+0 0  99902 44903   0.1998  80.4578 0001072 325.2895 334.5065  1.00271061 23475

JSON: /api/v1/satellites/44903 · /tle

For live sub-satellite position, see the globe view (requires WebGL).

§ Visibility from observer

Set your observer location to see the next 7 days of passes ≥ 10°. The values pass through the URL so the page stays shareable.

No JS? Fill the form by hand. The geolocation button needs JavaScript.

§ Radio — SatNOGS DB

ModeDescriptionDownlinkUplink
BPSK 200 kHz Selected Data RHCP Mode L (2000000bd) 1.693 GHz
FM DCP Downlink RHCP Mode C 7.500 GHz
BPSK PMT-A3 DCP/Selected Data Linear Mode L (2000000 bd) 1.697 GHz
BPSK Data Relay LHCP Mode L (200000) 1.545 GHz
FM Inter-satellite telecommand RHCP Mode U 465.000 MHz
BPSK LRIT Bandwidth 200 kHz Rate 64/128 kbps 1.691 GHz
FM TLM RHCP Mode S 3.406 GHz

7 transmitters · refreshed weekly from db.satnogs.org